Location: Mauriceville West
(40.7667°S, 175.6833°E)
Time: 23:32:04
(UTC+00:00)

Daily predictions for brighter satellites

Satellite Brightness Start Highest point End
(mag) Time Altitude Azimuth Time Altitude Azimuth Time Altitude Azimuth
Lacrosse 5 4.0 14:21:39 17° S 14:23:59 23° SSE 14:28:06 10° E
Cosmos 1943 Rocket 3.8 14:28:02 26° SSW 14:28:02 26° SSW 14:30:59 10° S
Cosmos 2369 Rocket 2.9 14:46:05 49° S 14:46:05 49° S 14:50:14 10° SSE
SL-16 R/B 3.3 14:44:29 10° SSE 14:50:26 45° E 14:52:04 37° NE
Cosmos 1867 4.0 14:53:15 58° ESE 14:53:15 58° ESE 14:57:44 10° SE
Cosmos 2173 Rocket 4.3 14:53:19 10° S 14:59:42 65° E 15:02:05 39° NNE
ALOS 4.1 15:03:17 22° SSW 15:03:17 22° SSW 15:04:58 10° SSW
SL-4 R/B 4.1 15:06:42 22° S 15:06:42 22° S 15:08:56 10° SE
CZ-2C R/B 3.6 15:12:13 18° ENE 15:12:13 18° ENE 15:13:28 10° ENE
ATLAS 2AS CENTAUR R/B 2.4 15:13:16 67° W 15:13:43 69° SW 15:20:22 10° SSE
Cosmos 1408 Rocket 4.4 15:16:44 45° S 15:16:44 45° S 15:19:54 10° S
ARIANE 5 R/B 2.5 15:15:15 75° ENE 15:15:35 79° ESE 15:20:46 10° S
Meteor 1-19 Rocket 4.2 15:10:08 10° S 15:16:03 81° E 15:17:42 49° NNE
ISS -0.9 15:19:51 14° S 15:19:51 14° S 15:21:22 10° SSE
ERS-1 4.5 15:20:31 62° NNE 15:21:23 83° ESE 15:26:33 10° SSW
Cosmos 1656 Rocket 4.4 15:26:54 36° SW 15:26:54 36° SW 15:31:28 10° S
SeaSat 1 4.3 15:28:00 10° S 15:30:46 18° SW 15:30:46 18° SW
RESURS DK-1 4.2 15:34:00 21° SSW 15:34:00 21° SSW 15:36:04 10° S
Envisat 3.4 15:28:14 10° NNE 15:33:16 63° ESE 15:38:22 10° S
UNK 3.6 15:29:37 10° S 15:34:16 80° WSW 15:34:19 80° W
CZ-2C R/B 4.1 15:41:19 17° SW 15:41:19 17° SW 15:42:38 10° SSW
Cosmos 2100 Rocket 4.0 15:34:35 10° SSW 15:40:45 57° W 15:42:19 45° NW
Cosmos 2016 Rocket 3.9 15:36:46 10° S 15:43:05 90° ESE 15:49:25 10° N
ATLAS 3B R/B 3.0 15:40:33 10° SSW 15:47:05 61° SE 15:53:21 10° NE
Cosmos 1833 4.1 15:43:10 10° SSW 15:48:42 58° WNW 15:54:12 10° N
Hubble Space Telescope 3.1 15:51:17 14° NNE 15:51:17 14° NNE 15:52:39 10° NE
Helios 1A 4.0 15:46:30 10° SSE 15:50:36 46° E 15:53:42 16° NNE
Cosmos 1484 Rocket 3.0 15:53:40 51° SW 15:53:40 51° SW 15:56:45 10° SSW
YAOGAN 6 2.5 15:56:19 67° SW 15:56:19 67° SW 15:59:30 10° SSW
Cosmos 1805 Rocket 3.4 15:56:10 51° NNW 15:57:10 72° W 16:01:36 10° S
Cosmos 2251 Rocket 4.4 15:53:42 12° N 15:58:27 49° ENE 16:03:36 10° SSE
Cosmos 2061 Rocket 3.9 15:54:49 10° S 16:01:16 79° W 16:07:32 10° N
Cosmos 614 Rocket 3.9 16:00:43 37° NW 16:02:45 68° WSW 16:08:02 10° SSE
YAOGAN 11 4.1 16:00:27 10° S 16:04:51 65° WSW 16:06:27 37° NW
Meteor 1-18 Rocket 4.3 16:00:01 10° SSW 16:05:58 66° W 16:11:47 10° N
Lacrosse 5 1.8 16:02:23 10° SW 16:07:34 89° NW 16:12:42 10° NE
Cosmos 1459 Rocket 4.5 16:02:25 10° SSW 16:08:05 38° W 16:10:26 28° NW
Meteor 1-29 2.9 16:13:59 51° WNW 16:14:12 52° W 16:17:31 10° SSW
Meteor 1-28 Rocket 4.5 16:11:06 10° SSW 16:13:50 25° WSW 16:13:50 25° WSW
PSLV R/B 3.5 16:10:13 10° NNE 16:14:25 85° E 16:18:42 10° SSW
Cosmos 2228 Rocket 3.1 16:11:34 10° SSW 16:16:13 72° W 16:20:47 10° N
Cosmos 1666 Rocket 3.8 16:13:17 10° N 16:17:43 73° E 16:22:11 10° SSE
Cosmos 1743 Rocket 4.4 16:19:04 29° W 16:19:32 30° WSW 16:23:26 10° SSW
Sich 1 3.3 16:18:59 30° NW 16:20:44 47° WSW 16:25:01 10° S
NOAA 11 4.1 16:15:22 10° NNE 16:20:49 85° WNW 16:26:21 10° SSW
CZ-4B R/B 3.8 16:15:43 10° NNE 16:20:51 71° ESE 16:25:55 10° S
CZ-2D R/B 4.3 16:21:10 29° W 16:21:16 29° W 16:25:10 10° SW
Cosmos 2233 Rocket 3.9 16:18:22 10° SSW 16:24:40 72° W 16:30:57 10° N
H-2A R/B 2.7 16:21:38 10° N 16:25:22 61° W 16:29:14 10° SSW
Cosmos 2369 Rocket 4.2 16:27:52 11° WSW 16:29:38 12° SW 16:31:56 10° SSW
Cosmos 1066 Rocket 4.5 16:24:18 10° S 16:30:16 80° E 16:36:09 10° NNE
Meteor 2-4 Rocket 4.1 16:25:21 10° SSW 16:31:04 47° W 16:36:43 10° NNW
CZ-4C R/B 1.7 16:26:38 10° SW 16:32:00 89° NW 16:36:25 10° NNE
SL-27 R/B 2.3 16:28:40 10° SSW 16:32:05 62° WNW 16:35:31 10° N
SL-16 R/B 3.4 16:28:29 10° S 16:33:46 30° WSW 16:37:09 18° WNW
NOSS 3-1 (C) 4.2 16:29:25 10° SSW 16:35:38 50° SE 16:40:47 10° NE
Cosmos 2098 Rocket 3.9 16:30:18 10° N 16:35:41 90° E 16:42:23 10° S
Cosmos 1725 Rocket 4.5 16:30:58 10° SSW 16:36:41 37° W 16:42:23 10° NNW
Cosmos 1447 Rocket 4.4 16:30:35 10° NNW 16:36:43 71° W 16:42:57 10° S
Meteor 1-4 Rocket 3.3 16:35:29 10° N 16:39:02 54° E 16:42:36 10° SSE
Cosmos 1707 Rocket 3.5 16:35:33 10° SSW 16:40:04 68° W 16:44:29 10° N
CZ-2C R/B 3.1 16:38:44 10° N 16:42:37 47° W 16:46:33 10° SSW
SL-4 R/B 4.2 16:43:29 10° SW 16:46:04 16° S 16:48:34 10° SE
CZ-2C R/B 2.3 16:45:54 18° WNW 16:48:15 30° NNW 16:51:54 10° NE
Cosmos 1470 Rocket 3.8 16:44:50 10° N 16:49:18 77° E 16:53:53 10° S
Cosmos 1697 Rocket 4.1 16:47:50 10° N 16:53:06 41° ENE 16:58:24 10° SE
ARIANE 5 R/B 4.3 16:55:33 11° W 16:55:33 11° W 16:56:57 10° WSW
CZ-2C R/B 3.8 16:51:51 10° NNW 16:56:04 27° W 17:00:13 10° SW
ISS -1.2 16:54:54 10° SSW 16:57:20 18° SSE 16:59:47 10° ESE
Cosmos 1656 3.6 16:53:26 10° NNW 16:58:58 81° WSW 17:04:32 10° SSE
Cosmos 1536 2.9 16:56:21 10° NNW 17:00:19 59° W 17:04:21 10° S
Landsat 4 3.6 16:58:24 10° N 17:02:09 79° WNW 17:06:00 10° SSW
Cosmos 1140 Rocket 3.6 17:00:20 10° NNW 17:05:31 58° WSW 17:10:46 10° SSE
ATLAS 2AS CENTAUR R/B 4.3 17:01:30 10° WSW 17:05:54 18° SSW 17:10:27 10° SSE
Meteor 1-13 Rocket 4.3 17:00:37 10° SSW 17:06:33 69° W 17:12:19 10° N
NOAA 12 4.3 17:02:27 10° NNE 17:07:48 83° ESE 17:13:14 10° SSW
Meteor 2-13 Rocket 4.5 17:03:52 10° N 17:10:03 81° W 17:16:17 10° S
Cosmos 405 Rocket 2.8 17:12:05 10° SSW 17:15:45 53° W 17:19:25 10° N
H-2A R/B 2.4 17:11:38 10° NNE 17:16:48 71° ESE 17:21:54 10° S
Cosmos 2084 3.9 17:14:51 10° NNW 17:19:39 81° ENE 17:24:35 10° SE
Meteor 1-23 Rocket 4.3 17:16:23 10° S 17:22:08 87° W 17:27:54 10° N
FengYun 1-2 T 4.3 17:16:52 10° N 17:22:33 79° WNW 17:28:16 10° SSW
